Notices

What's New in latest Release from April 7th, 2021:

- Updated Glossary, including Speed of Maximum Gust, and Total Hourly Precipitation

- Updated national and regional climate services offices contacts and prices information

- Addition of station inventory lists for 1981-2010, 1971-2000, and 1961-1990 Normals.

If you haven't already, please take our survey and provide feedback about our website: https://eccc.sondage-survey.ca/f/LanguageSelection.aspx?s=442ca660-fcf1-47c0-95a9-59707d6fd709

Hourly Data Report for September 01, 2017

VICTORIA UNIVERSITY CS
BRITISH COLUMBIA

48°27'25.200" N
123°18'16.600" W
60.10 m
1018598
71783
WYJ

Download Data

Hourly Data (September 2017)
Hourly Data Report for September 1, 2017
TIME
LST
Temp Definition
°C
Dew Point Definition
°C
Rel Hum Definition
%
Precip. Amount Definition
mm

Wind Dir Definition
10's deg

Wind Spd Definition
km/h
Visibility Definition
km
Stn Press Definition
kPa
Hmdx Definition


Wind Chill Definition


Weather Definition


00:00 13.2 10.5 83 0.0 25 4   101.29     LegendNANA
01:00 12.1 10.1 88 0.0 26 2   101.31     LegendNANA
02:00 11.1 9.8 92 0.0 27 2   101.30     LegendNANA
03:00 10.6 9.6 94 0.0 29 1   101.32     LegendNANA
04:00 10.1 9.2 94 0.0   0   101.32     LegendNANA
05:00 10.0 9.3 95 0.0   0   101.35     LegendNANA
06:00 10.1 9.6 96 0.0 5 1   101.38     LegendNANA
07:00 14.0 12.9 93 0.0   0   101.42     LegendNANA
08:00 16.1 12.2 78 0.0 8 3   101.45     LegendNANA
09:00 17.6 12.4 72 0.0 36 9   101.46     LegendNANA
10:00 19.3 12.5 65 0.0 2 8   101.45     LegendNANA
11:00 19.9 12.5 62 0.0 7 5   101.41     LegendNANA
12:00 18.7 12.2 66 0.0 9 5   101.36     LegendNANA
13:00 20.8 12.5 59 0.0 10 4   101.31     LegendNANA
14:00 21.0 12.4 58 0.0 9 5   101.25     LegendNANA
15:00 22.3 12.9 55 0.0 9 5   101.19 25   LegendNANA
16:00 23.2 11.4 48 0.0 8 4   101.14 25   LegendNANA
17:00 24.2 11.0 44 0.0 24 5   101.10 26   LegendNANA
18:00 22.2 8.5 41 0.0 22 3   101.05     LegendNANA
19:00 19.7 9.0 50 0.0 25 3   101.01     LegendNANA
20:00 16.9 9.0 60 0.0 0 1   101.02     LegendNANA
21:00 15.5 9.4 67 0.0 28 1   101.02     LegendNANA
22:00 14.7 9.8 72 0.0   0   101.02     LegendNANA
23:00 14.3 10.1 76 0.0   0   101.00     LegendNANA

Notes on Data Quality.

Legend

  • E = Estimated
  • M = Missing
  • NA = Not Available*
  • [empty] = Indicates an unobserved value
Date modified: